Weather in Askino

Russia / Republic of Bashkortostan     56°05′08″N   56°34′43″E
temp.,
°C
wind,
m/s
gust,
m/s
humid.,
%
clouds,
%
prec.,
mm/h
press.,
hPa
HPBL,
m
26 february, fri
fri2623:00−26sse33961 0.0 102929
02:00−27sse34930 0.0 102859
05:00−28se45930 0.0 102869
08:00−28sse34920 0.0 102750
11:00−22sse489313 0.0 1025276
14:00−17s478955 0.0 1024456
17:00−15s478860 0.0 1023467
20:00−19sse339297 0.0 102127
27 february, sat
sat2723:00−19se459374 0.0 102078
02:00−19se479454 0.0 1016108
05:00−17se5118877 0.0 1013233
08:00−16ese71286100 0.0 1009418
11:00−14se61094100 1.1 1007467
14:00−11se6893100 1.1 1005555
17:00−10ese4693100 1.5 1005435
20:00−12ese6992100 0.3 1004320
28 february, sun
sun2823:00−14e599499 0.5 1004264
02:00−15ene599395 0.1 1003223
05:00−14ene489397 0.1 1003214
08:00−13ene489594 0.1 1003237
11:00−10ene579294 0.3 1003402
14:00−8ne5791100 0.2 1004501
17:00−7ne5792100 0.4 1005538
20:00−10ne599496 0.3 1007356
1 march, mon
mon123:00−14ne6109297 0.5 1010344
02:00−15ne599496 0.1 1012315
05:00−18ne479596 0.1 1015174
08:00−21nne469662 0.0 101798
11:00−18ne459232 0.0 1018248
14:00−13nne348646 0.0 1018431
17:00−13nnw238973 0.0 1019364
20:00−19nnw239779 0.0 102020
2 march, tue
tue223:00−22ssw1110040 0.0 102020
02:00−22sw231002 0.0 101820
05:00−23ssw4410041 0.0 101769
08:00−22ssw5109798 0.0 1015230
11:00−19s7119499 0.0 1012326
14:00−15ssw71291100 0.0 1010441
17:00−14ssw71294100 0.7 1007533
20:00−14ssw61294100 0.7 1006545